Regional Weather Roundup
Issued by NWS

Home | Current Version | Previous Version | Graphics & Text | Print | Product List | Glossary On
Versions: 1 2 3 4 5 6 7 8 9 10 11 12 13 14 15 16 17 18 19 20 21 22 23 24 25 26 27 28 29 30 31 32 33 34 35 36 37 38 39 40 41 42 43 44 45 46 47 48 49 50
000
ASUS43 KFSD 260302
RWRSD

WEATHER ROUNDUP FOR SOUTH DAKOTA
NATIONAL WEATHER SERVICE SIOUX FALLS SD
1000 PM CDT FRI JUL 25 2014

NOTE: "FAIR" INDICATES FEW OR NO CLOUDS BELOW 12,000 FEET WITH NO
SIGNIFICANT WEATHER AND/OR OBSTRUCTIONS TO VISIBILITY.


SDZ001>005-009-010-012>017-260400-
NORTHWEST AND NORTH CENTRAL SOUTH DAKOTA

CITY           SKY/WX    TMP DP  RH WIND       PRES   REMARKS
BUFFALO          N/A     71  52  50 SE13      29.80R
FAITH            N/A     72  50  45 SE13      29.87S
MOBRIDGE       CLEAR     66  51  58 E7        29.82R
$$

SDZ012>016-024>037-041>051-057-063-072>074-260400-
SOUTHWEST AND SOUTH CENTRAL SOUTH DAKOTA

CITY           SKY/WX    TMP DP  RH WIND       PRES   REMARKS
RAPID CTY ARPT PTCLDY    69  56  62 E8        29.89R
PIERRE         PTCLDY    73  55  53 N8        29.84R
CUSTER         PTCLDY    65  47  52 NE6       30.02R
ELLSWORTH AFB  PTCLDY    74  55  50 SE5       29.90R
PHILIP         MOCLDY    73  48  41 E7        29.84S
PINE RIDGE     PTCLDY    72  55  55 NE7       29.87S
WINNER         FAIR      80  68  66 E7        29.85R
$$

SDZ004>011-016>023-039-040-260400-
NORTHEAST SOUTH DAKOTA

CITY           SKY/WX    TMP DP  RH WIND       PRES   REMARKS
ABERDEEN       CLEAR     65  59  81 N3        29.84R
WATERTOWN      CLEAR     69  66  90 CALM      29.85R
SISSETON         N/A     72  70  93 SW6       29.81R
$$

SDZ017-020-022-023-036>040-048>070-260400-
SOUTHEAST SOUTH DAKOTA

CITY           SKY/WX    TMP DP  RH WIND       PRES   REMARKS
SIOUX FALLS    MOCLDY    78  72  81 N8        29.82R
HURON          CLEAR     69  66  90 E3        29.83R
CHAMBERLAIN    PTCLDY    73  67  82 E5        29.84R
MITCHELL       PTCLDY    72  68  87 N6        29.83R
YANKTON        CLEAR     77  72  83 CALM      29.81R
$$

ABBREVIATIONS USED IN REMARKS
   TC - TEMPERATURE IN CELSIUS
  WCI - WIND CHILL INDEX
   HX - HEAT INDEX
  VSB - VISIBILITY



USA.gov is the U.S. government's official web portal to all federal, state and local government web resources and services.